Date,TemperatureHighF,TemperatureAvgF,TemperatureLowF,DewpointHighF,DewpointAvgF,DewpointLowF,HumidityHigh,HumidityAvg,HumidityLow,PressureMaxIn,PressureMinIn,WindSpeedMaxMPH,WindSpeedAvgMPH,GustSpeedMaxMPH,PrecipitationSumIn
2013-3-1,37,31,26,25,22,15,83,71,55,0.00,40.00,10,5,26,0.00
2013-3-2,43,36,28,22,18,7,77,49,24,0.00,40.00,9,1,14,0.00
2013-3-3,41,34,29,31,26,11,94,77,28,0.00,40.00,9,2,22,0.00
2013-3-4,29,21,16,27,10,0,93,63,35,0.00,40.00,10,4,24,0.00
2013-3-5,42,30,16,10,-4,-23,51,22,11,0.00,40.00,19,8,26,0.00
2013-3-6,42,36,28,28,16,10,95,45,34,0.00,40.00,15,9,32,0.00
2013-3-7,40,30,24,27,23,9,95,78,26,0.00,40.00,11,3,22,0.00
2013-3-8,35,30,28,28,26,23,96,84,59,0.00,40.00,12,4,20,0.00
2013-3-9,33,27,22,27,21,9,96,80,56,0.00,40.00,10,6,21,0.00
2013-3-10,39,28,21,15,9,4,62,46,30,0.00,40.00,9,4,18,0.00
2013-3-11,37,32,28,25,16,6,72,51,37,0.00,40.00,10,4,24,0.00
2013-3-12,40,35,30,27,25,20,85,67,48,0.00,40.00,10,4,26,0.00
2013-3-13,49,42,35,26,23,12,61,47,27,0.00,40.00,7,2,11,0.00
2013-3-14,59,51,45,21,16,10,31,24,17,0.00,40.00,7,2,17,0.00
2013-3-15,55,49,43,22,16,13,38,26,18,0.00,40.00,10,4,21,0.00
2013-3-16,44,40,36,21,15,4,50,35,20,0.00,40.00,7,3,17,0.00
2013-3-17,40,30,23,28,16,5,91,59,33,0.00,40.00,20,9,43,0.00
2013-3-18,34,27,19,17,12,8,91,55,35,0.00,40.00,18,5,37,0.00
2013-3-19,40,31,23,13,-6,-27,52,22,7,0.00,40.00,9,4,19,0.00
2013-3-20,38,35,32,33,23,3,93,66,25,0.00,40.00,13,5,22,0.00
2013-3-21,38,27,19,29,13,-1,88,58,32,0.00,40.00,16,6,36,0.00
2013-3-22,19,16,12,14,8,2,89,71,47,0.00,40.00,14,5,26,0.00
2013-3-23,23,14,10,12,6,-3,86,69,43,0.00,40.00,10,6,20,0.00
2013-3-24,25,15,10,13,4,-5,86,62,43,0.00,40.00,7,3,14,0.00
2013-3-25,37,23,12,18,9,-6,74,54,38,0.00,40.00,7,2,10,0.00
2013-3-26,45,37,30,27,17,12,85,45,26,0.00,40.00,8,4,21,0.00
2013-3-27,50,40,30,23,18,12,74,42,25,0.00,40.00,9,3,16,0.00
2013-3-28,53,44,39,23,18,12,44,34,24,0.00,40.00,11,4,21,0.00
2013-3-29,52,43,35,31,25,21,85,49,30,0.00,40.00,9,5,18,0.00
2013-3-30,50,44,40,26,21,-100,50,42,26,0.00,40.00,9,4,20,0.00
2013-3-31,55,44,35,25,16,3,56,35,11,0.00,40.00,12,2,19,0.00